Tracking 20942 objects as of 4-Jul-2020
HD Live streaming from Space Station
objects crossing your sky now

THORAD DELTA 1 DEB

Track THORAD DELTA 1 DEB now!
10-day predictions


NORAD ID: 8307
Int'l Code: 1974-089BQ
Perigee: 1,431.2 km
Apogee: 2,172.5 km
Inclination: 101.2 °
Period: 122.6 minutes
Semi major axis: 8172 km
RCS: 0.1335 m2 (medium)
Launch date: November 15, 1974
Source: United States (US)
Launch site: AIR FORCE WESTERN TEST RANGE (AFWTR)

Note: This is SATELLITE DEBRIS
aabbcc
Your satellite tracking list
Your tracking list is empty




NASA's NSSDC Master Catalog

Two Line Element Set (TLE):
1  8307U 74089BQ  20186.16557852 -.00000029  00000-0  30466-4 0  9997
2  8307 101.1660 250.3025 0453513  50.3227 336.3531 11.75015911958245
Source of the keplerian elements: AFSPC